EN

Hourly Weather Nicosia

Today, 12 June, Saturday

Time Temperature Precipitation Wind Pressure Humidity
00:00 +21°C° 0 mm 9 mps 743 mmHg 59%
01:00 +21°C° 0 mm 9 mps 743 mmHg 60%
02:00 +21°C° 0 mm 9 mps 743 mmHg 60%
03:00 +21°C° 0 mm 8 mps 743 mmHg 63%
04:00 +21°C° 0 mm 7 mps 744 mmHg 66%
05:00 +20°C° 0 mm 6 mps 744 mmHg 68%
06:00 +22°C° 0 mm 6 mps 744 mmHg 64%
07:00 +25°C° 0 mm 5 mps 744 mmHg 59%
08:00 +27°C° 0 mm 5 mps 744 mmHg 55%
09:00 +27°C° 0 mm 5 mps 745 mmHg 56%
10:00 +28°C° 0 mm 6 mps 745 mmHg 56%
11:00 +29°C° 0 mm 6 mps 745 mmHg 56%
12:00 +29°C° 0 mm 7 mps 744 mmHg 54%
13:00 +29°C° 0 mm 8 mps 744 mmHg 52%
14:00 +29°C° 0 mm 8 mps 744 mmHg 49%
15:00 +29°C° 0 mm 9 mps 744 mmHg 50%
16:00 +29°C° 0 mm 9 mps 743 mmHg 52%
17:00 +28°C° 0 mm 10 mps 743 mmHg 53%
18:00 +27°C° 0 mm 10 mps 743 mmHg 56%
19:00 +26°C° 0 mm 9 mps 743 mmHg 60%
20:00 +23°C° 0 mm 9 mps 743 mmHg 63%
21:00 +23°C° 0 mm 9 mps 743 mmHg 60%
22:00 +23°C° 0 mm 9 mps 743 mmHg 56%
23:00 +23°C° 0 mm 9 mps 744 mmHg 52%

Tomorrow, 13 June, Sunday

Time Temperature Precipitation Wind Pressure Humidity
00:00 +23°C° 0 mm 8 mps 744 mmHg 55%
01:00 +22°C° 0 mm 7 mps 744 mmHg 58%
02:00 +21°C° 0 mm 7 mps 744 mmHg 61%
03:00 +21°C° 0 mm 6 mps 744 mmHg 63%
04:00 +21°C° 0 mm 5 mps 744 mmHg 64%
05:00 +21°C° 0 mm 4 mps 744 mmHg 66%
06:00 +23°C° 0 mm 4 mps 744 mmHg 59%
07:00 +26°C° 0 mm 4 mps 744 mmHg 53%
08:00 +29°C° 0 mm 3 mps 744 mmHg 47%
09:00 +29°C° 0 mm 3 mps 744 mmHg 50%
10:00 +29°C° 0 mm 3 mps 744 mmHg 53%
11:00 +30°C° 0 mm 3 mps 745 mmHg 56%
12:00 +30°C° 0 mm 3 mps 744 mmHg 53%
13:00 +30°C° 0 mm 3 mps 744 mmHg 49%
14:00 +30°C° 0 mm 3 mps 743 mmHg 45%
15:00 +30°C° 0 mm 4 mps 743 mmHg 48%
16:00 +29°C° 0 mm 5 mps 743 mmHg 50%
17:00 +28°C° 0 mm 5 mps 743 mmHg 53%
18:00 +26°C° 0 mm 6 mps 743 mmHg 61%
19:00 +23°C° 0 mm 6 mps 743 mmHg 70%
20:00 +21°C° 0 mm 7 mps 743 mmHg 78%
21:00 +21°C° 0 mm 7 mps 743 mmHg 75%
22:00 +21°C° 0 mm 7 mps 743 mmHg 72%
23:00 +21°C° 0 mm 7 mps 742 mmHg 69%

Day after tomorrow, 14 June, Monday

Time Temperature Precipitation Wind Pressure Humidity
00:00 +21°C° 0 mm 7 mps 742 mmHg 67%
01:00 +20°C° 0 mm 7 mps 742 mmHg 66%
02:00 +20°C° 0 mm 7 mps 742 mmHg 64%
03:00 +20°C° 0 mm 7 mps 742 mmHg 64%
04:00 +20°C° 0 mm 6 mps 742 mmHg 64%
05:00 +20°C° 0 mm 6 mps 742 mmHg 63%
06:00 +22°C° 0 mm 5 mps 742 mmHg 63%
07:00 +23°C° 0 mm 5 mps 742 mmHg 63%
08:00 +26°C° 0 mm 4 mps 743 mmHg 63%
09:00 +27°C° 0 mm 5 mps 743 mmHg 59%
10:00 +28°C° 0 mm 5 mps 743 mmHg 56%
11:00 +29°C° 0 mm 5 mps 743 mmHg 53%
12:00 +29°C° 0 mm 6 mps 743 mmHg 49%
13:00 +29°C° 0 mm 6 mps 742 mmHg 45%
14:00 +29°C° 0 mm 7 mps 742 mmHg 41%
15:00 +28°C° 0 mm 7 mps 742 mmHg 47%
16:00 +27°C° 0 mm 8 mps 742 mmHg 53%
17:00 +27°C° 0 mm 8 mps 741 mmHg 60%
18:00 +24°C° 0 mm 8 mps 742 mmHg 70%
19:00 +22°C° 0 mm 8 mps 742 mmHg 80%
20:00 +21°C° 0 mm 8 mps 742 mmHg 91%
21:00 +20°C° 0 mm 8 mps 742 mmHg 89%
22:00 +20°C° 0 mm 8 mps 742 mmHg 87%
23:00 +18°C° 0 mm 7 mps 742 mmHg 86%

15 June, Tuesday

Time Temperature Precipitation Wind Pressure Humidity
00:00 +18°C° 0 mm 7 mps 742 mmHg 87%
01:00 +18°C° 0 mm 7 mps 742 mmHg 88%
02:00 +17°C° 0 mm 7 mps 742 mmHg 90%
03:00 +19°C° 0 mm 6 mps 742 mmHg 89%
04:00 +19°C° 0 mm 6 mps 742 mmHg 87%
05:00 +20°C° 0 mm 6 mps 742 mmHg 86%
06:00 +21°C° 0 mm 5 mps 743 mmHg 78%
07:00 +23°C° 0 mm 5 mps 743 mmHg 71%
08:00 +25°C° 0 mm 5 mps 743 mmHg 63%
09:00 +27°C° 0 mm 6 mps 743 mmHg 60%
10:00 +28°C° 0 mm 7 mps 743 mmHg 57%
11:00 +29°C° 0 mm 8 mps 743 mmHg 54%
12:00 +29°C° 0 mm 8 mps 743 mmHg 53%
13:00 +29°C° 0 mm 9 mps 743 mmHg 52%
14:00 +31°C° 0 mm 9 mps 743 mmHg 51%
15:00 +29°C° 0 mm 9 mps 742 mmHg 53%
16:00 +28°C° 0 mm 9 mps 742 mmHg 56%
17:00 +27°C° 0 mm 10 mps 742 mmHg 58%
18:00 +24°C° 0 mm 9 mps 742 mmHg 69%
19:00 +22°C° 0 mm 9 mps 743 mmHg 81%
20:00 +19°C° 0 mm 9 mps 743 mmHg 93%
21:00 +19°C° 0 mm 9 mps 743 mmHg 89%
22:00 +20°C° 0 mm 8 mps 743 mmHg 86%
23:00 +20°C° 0 mm 8 mps 743 mmHg 83%

16 June, Wednesday

Time Temperature Precipitation Wind Pressure Humidity
00:00 +20°C° 0 mm 7 mps 743 mmHg 82%
01:00 +20°C° 0 mm 7 mps 743 mmHg 81%
02:00 +20°C° 0 mm 6 mps 743 mmHg 80%
03:00 +20°C° 0 mm 5 mps 743 mmHg 74%
04:00 +20°C° 0 mm 5 mps 743 mmHg 69%
05:00 +20°C° 0 mm 4 mps 743 mmHg 63%
06:00 +22°C° 0 mm 4 mps 743 mmHg 56%
07:00 +25°C° 0 mm 3 mps 744 mmHg 49%
08:00 +27°C° 0 mm 3 mps 744 mmHg 42%
09:00 +28°C° 0 mm 3 mps 744 mmHg 45%
10:00 +28°C° 0 mm 4 mps 744 mmHg 48%
11:00 +29°C° 0 mm 4 mps 744 mmHg 50%
12:00 +29°C° 0 mm 4 mps 744 mmHg 49%
13:00 +29°C° 0 mm 4 mps 744 mmHg 48%
14:00 +29°C° 0 mm 4 mps 743 mmHg 46%
15:00 +29°C° 0 mm 5 mps 743 mmHg 43%
16:00 +28°C° 0 mm 5 mps 743 mmHg 39%
17:00 +28°C° 0 mm 5 mps 743 mmHg 36%
18:00 +25°C° 0 mm 5 mps 743 mmHg 49%
19:00 +22°C° 0 mm 5 mps 744 mmHg 63%
20:00 +19°C° 0 mm 5 mps 744 mmHg 77%
21:00 +19°C° 0 mm 5 mps 744 mmHg 71%
22:00 +19°C° 0 mm 5 mps 744 mmHg 66%
23:00 +19°C° 0 mm 6 mps 744 mmHg 60%

17 June, Thursday

Time Temperature Precipitation Wind Pressure Humidity
00:00 +17°C° 0 mm 6 mps 744 mmHg 62%
01:00 +17°C° 0 mm 6 mps 744 mmHg 63%
02:00 +17°C° 0 mm 7 mps 743 mmHg 64%
03:00 +17°C° 0 mm 6 mps 744 mmHg 59%
04:00 +17°C° 0 mm 6 mps 744 mmHg 54%
05:00 +19°C° 0 mm 6 mps 744 mmHg 50%
06:00 +21°C° 0 mm 6 mps 744 mmHg 44%
07:00 +25°C° 0 mm 5 mps 744 mmHg 38%
08:00 +27°C° 0 mm 5 mps 744 mmHg 31%
09:00 +28°C° 0 mm 6 mps 745 mmHg 34%
10:00 +29°C° 0 mm 7 mps 745 mmHg 37%
11:00 +30°C° 0 mm 7 mps 745 mmHg 40%
12:00 +30°C° 0 mm 7 mps 745 mmHg 41%
13:00 +31°C° 0 mm 8 mps 745 mmHg 43%
14:00 +31°C° 0 mm 8 mps 744 mmHg 44%
15:00 +31°C° 0 mm 8 mps 744 mmHg 46%
16:00 +29°C° 0 mm 8 mps 744 mmHg 48%
17:00 +29°C° 0 mm 8 mps 744 mmHg 51%
18:00 +27°C° 0 mm 8 mps 744 mmHg 56%
19:00 +26°C° 0 mm 8 mps 744 mmHg 61%
20:00 +23°C° 0 mm 8 mps 744 mmHg 66%
21:00 +24°C° 0 mm 8 mps 744 mmHg 58%
22:00 +24°C° 0 mm 8 mps 744 mmHg 51%
23:00 +26°C° 0 mm 8 mps 744 mmHg 44%
Show more